sat.trackr.live / text

‹ back to catalog

APSTAR-6E

NORAD 55239 · 2023-005A

PAYLOAD ACTIVE UNKNOWN

§ Identity

Operator
Country
PRC
Launch date
2023-01-12
Launch site
XICLF
Launch vehicle
Mass (kg)
RCS (m²)

Purposes: comms

External: N2YO · Heavens-Above · Gunter

§ Orbital elements

Epoch: 2026-05-24T19:49:29.651232Z

Period
1,436.09 min
Inclination
0.0131°
Eccentricity
0.0000502
Mean motion
1.00272251 rev/d
Perigee alt
35,784.3 km
Apogee alt
35,788.6 km
Semi-major
42,164.6 km
B*
0.0000e+0
RAAN
246.4257°
Arg perigee
307.9398°
Mean anomaly
119.4031°
Rev number
1,845

§ Raw data

APSTAR-6E1 55239U 23005A   26144.82603763 -.00000321  00000+0  00000+0 0  99912 55239   0.0131 246.4257 0000502 307.9398 119.4031  1.00272251 18454

JSON: /api/v1/satellites/55239 · /tle

For live sub-satellite position, see the globe view (requires WebGL).

§ Visibility from observer

Set your observer location to see the next 7 days of passes ≥ 10°. The values pass through the URL so the page stays shareable.

No JS? Fill the form by hand. The geolocation button needs JavaScript.